sat.trackr.live / text

‹ back to catalog

STARLINK-4684

NORAD 53595 · 2022-104H

PAYLOAD ACTIVE UNKNOWN

§ Identity

Operator
Country
US
Launch date
2022-08-28
Launch site
AFETR
Launch vehicle
Mass (kg)
RCS (m²)

Purposes: comms

External: N2YO · Heavens-Above · Gunter

§ Orbital elements

Epoch: 2026-05-25T01:23:09.278592Z

Period
95.44 min
Inclination
53.2153°
Eccentricity
0.0001299
Mean motion
15.08840616 rev/d
Perigee alt
538.8 km
Apogee alt
540.6 km
Semi-major
6,917.9 km
B*
4.9860e-5
RAAN
261.3011°
Arg perigee
91.8907°
Mean anomaly
268.2234°
Rev number
20,747

§ Raw data

STARLINK-46841 53595U 22104H   26145.05774628  .00000506  00000+0  49860-4 0  99942 53595  53.2153 261.3011 0001299  91.8907 268.2234 15.08840616207473

JSON: /api/v1/satellites/53595 · /tle

For live sub-satellite position, see the globe view (requires WebGL).

§ Visibility from observer

Set your observer location to see the next 7 days of passes ≥ 10°. The values pass through the URL so the page stays shareable.

No JS? Fill the form by hand. The geolocation button needs JavaScript.